GFSGBSN_prec_cthk_249.txt.gz
RH
11 12 11 11 11 13 15 15 15 16 16 15 14 14 12 12 11 11 10 9 9 8 8 8 8 9 10 15 11 9 12 10 11 23 20 28 35 55 49 41 34 36 28 32 31 28 26
15 16 16 15 14 14 15 16 16 17 17 16 15 14 14 13 12 12 11 10 9 8 8 7 7 8 13 17 9 11 11 10 12 12 21 24 34 46 57 49 45 28 30 35 36 29 29
19 19 20 20 20 19 18 18 18 19 18 17 16 16 15 14 13 12 10 9 8 9 9 7 7 8 13 10 7 7 9 11 16 15 14 24 32 38 51 58 54 41 33 33 32 31 30
25 25 25 24 24 24 24 25 24 22 20 19 19 18 16 14 13 11 10 10 9 12 11 11 11 9 12 8 12 14 15 16 20 21 18 17 31 41 43 56 62 58 41 36 20 33 30
28 28 30 31 30 31 31 30 29 27 24 22 20 17 15 14 12 11 11 10 12 16 15 16 17 22 21 17 18 22 23 23 22 23 22 18 25 37 49 53 68 69 54 38 23 27 35
33 33 33 32 33 33 33 32 32 32 30 27 22 18 16 14 12 12 14 12 14 21 22 24 29 30 22 22 22 19 22 26 27 26 27 27 33 40 54 60 60 62 61 48 32 20 38
30 30 29 32 32 34 37 38 37 36 32 29 26 22 18 15 13 15 17 14 17 24 23 22 19 24 27 31 27 20 22 27 33 37 38 34 37 46 40 55 49 52 62 57 37 30 34
31 32 32 30 31 33 36 38 38 36 34 31 27 22 20 18 15 20 18 22 30 34 28 17 30 42 45 36 39 40 38 44 48 52 49 50 45 28 41 56 67 70 60 61 45 46 35
33 32 34 31 35 35 35 36 34 34 34 32 28 24 22 20 17 19 18 24 29 28 29 18 39 47 47 50 56 57 57 60 59 58 63 64 40 38 35 41 66 74 69 53 56 60 43
34 31 31 31 33 36 40 39 36 33 30 30 27 26 24 23 23 21 22 25 24 26 35 29 47 52 50 58 67 70 67 67 68 66 70 62 50 50 45 42 48 74 65 70 61 83 76
42 41 37 36 34 38 43 45 40 38 32 30 28 25 27 25 25 27 28 25 25 31 29 32 54 51 43 60 66 71 72 74 80 81 90 64 59 67 65 41 41 52 76 81 80 84 80
43 44 44 38 37 38 44 45 42 36 33 29 28 26 26 27 26 30 28 28 34 41 32 46 47 52 48 48 65 69 71 73 80 82 83 71 62 67 54 49 55 42 72 90 97 90 97
38 40 39 39 38 39 44 45 40 38 34 31 31 26 25 28 25 31 33 36 44 46 32 44 49 50 45 51 52 58 72 75 84 85 76 62 57 65 65 68 60 64 67 89 97 98 91
34 36 38 39 41 42 44 46 41 40 38 36 32 26 28 31 27 34 39 44 45 37 46 48 52 46 42 49 42 54 73 78 81 93 86 79 63 74 81 81 73 72 73 79 94 96 84
34 35 37 40 44 44 48 48 46 41 39 37 32 31 41 44 42 45 48 55 52 51 55 61 61 60 53 62 70 66 72 74 80 85 94 87 68 61 69 76 88 69 88 55 81 94 96
41 42 43 46 49 52 53 49 46 45 41 39 35 37 49 49 53 53 54 58 55 57 64 70 75 67 68 66 77 83 71 72 82 88 92 85 75 60 67 78 82 81 92 99 98 94 96
40 41 46 53 57 59 54 49 44 45 45 40 40 40 52 53 53 57 61 59 55 58 68 72 75 78 73 76 70 80 84 75 89 91 92 91 83 59 62 87 98 96 95 98 98 94 89
42 43 47 55 59 57 55 50 47 47 48 43 43 47 53 57 51 55 58 59 61 65 68 75 73 71 70 66 68 74 93 89 81 84 98 93 91 77 63 79 96 98 97 96 98 98 99
44 45 51 56 56 54 54 53 53 49 50 47 47 47 45 51 54 57 60 64 65 67 72 71 68 66 66 61 68 72 76 80 85 75 90 96 89 88 62 81 90 91 93 96 97 99 95
48 49 55 51 49 53 52 51 53 51 51 52 52 52 47 53 54 60 63 60 68 66 65 68 69 68 68 61 58 57 62 66 72 72 92 94 95 93 93 89 93 94 86 91 98 97 97
49 51 53 51 47 50 50 51 52 53 55 57 56 53 53 53 57 59 64 66 68 75 69 73 72 74 70 67 56 57 49 51 58 68 81 92 94 98 97 91 81 85 84 84 94 96 93
49 50 49 46 47 52 52 50 51 58 60 58 58 59 57 56 54 54 58 71 73 75 77 74 76 72 66 69 67 63 62 53 57 66 69 81 90 85 89 80 82 70 53 62 85 93 91
42 44 45 41 45 51 51 48 51 60 61 57 59 60 60 54 55 60 63 67 70 75 70 71 72 70 63 61 63 65 61 53 51 52 69 76 86 87 74 74 66 54 56 73 77 88 92
40 41 41 41 43 50 51 52 52 57 61 60 58 59 60 54 57 57 60 64 67 70 75 68 64 66 55 59 66 63 59 53 49 37 56 67 78 90 72 68 72 42 41 56 64 71 77
38 38 39 38 41 48 51 54 53 57 60 61 59 59 59 55 53 55 58 63 64 64 68 65 48 53 56 68 82 69 59 63 52 33 39 58 73 86 88 77 55 55 71 66 66 70 76
37 37 37 38 40 48 52 54 54 52 59 61 57 59 59 57 48 49 56 61 63 61 58 48 46 55 60 80 82 84 83 84 75 51 67 77 83 92 96 91 80 55 67 71 72 81 79
32 30 36 39 41 50 54 56 54 52 58 59 57 59 60 57 48 48 57 55 52 60 60 47 50 58 65 75 83 92 94 82 90 92 76 83 86 88 89 91 72 62 66 75 72 93 84
35 37 39 39 43 52 54 55 54 52 55 57 51 57 60 57 48 48 48 50 53 55 53 45 63 66 73 80 88 95 95 97 94 82 76 78 80 89 88 85 79 71 82 94 97 85 85
36 38 40 43 47 52 55 56 54 53 58 60 53 57 60 58 48 47 43 43 44 49 51 58 61 77 84 86 84 82 88 87 88 95 84 95 87 92 96 85 66 63 71 82 90 89 86

GFSGBSN_prec_cthk_255.txt.gz
RH
11 13 12 13 12 11 11 11 11 12 12 13 14 14 14 14 14 14 13 12 11 11 10 9 9 8 7 6 6 8 9 12 13 10 9 11 17 22 27 25 29 28 21 28 35 37 32
16 16 16 16 15 15 15 15 16 15 15 15 15 15 15 16 15 14 13 13 12 10 9 8 8 9 9 8 8 7 7 8 9 11 11 11 15 22 26 30 30 26 30 30 29 33 37
22 22 21 20 20 19 19 20 20 21 21 20 19 19 18 17 16 15 14 13 12 9 9 10 11 12 11 10 15 15 15 12 14 13 13 13 14 16 25 27 26 28 28 25 27 31 33
23 24 26 26 26 24 23 24 25 25 25 25 24 21 20 19 18 17 15 12 10 9 10 13 14 15 15 17 17 19 20 19 18 15 14 14 18 18 19 21 24 29 29 25 14 23 33
28 27 29 29 30 31 31 32 32 30 26 25 24 23 22 21 19 17 13 10 9 10 13 14 16 14 19 19 20 20 19 19 19 18 13 18 22 22 22 24 24 25 28 22 20 22 31
26 27 26 26 27 27 27 30 29 28 27 26 26 25 24 22 18 14 12 11 12 14 16 16 16 17 24 25 24 26 25 22 21 18 21 26 29 31 32 33 20 18 28 27 30 32 35
23 25 26 27 27 26 26 26 27 27 26 27 27 27 24 20 16 14 13 13 14 17 17 18 25 25 25 28 30 35 34 34 35 35 35 36 36 40 34 31 28 31 31 27 21 34 41
25 24 27 28 26 30 28 27 28 27 28 30 29 26 22 19 17 17 16 19 26 25 26 25 26 25 27 29 32 37 39 41 44 47 49 50 49 37 41 38 38 37 37 27 18 25 35
27 29 27 26 27 26 27 29 30 31 31 29 28 26 22 19 18 18 20 24 26 27 27 26 32 29 27 28 35 37 43 47 51 57 57 60 53 55 53 48 53 47 41 28 27 30 28
29 31 32 31 30 29 26 29 32 31 30 30 28 26 22 19 19 20 25 26 26 26 26 27 40 38 30 29 37 37 45 48 55 61 60 61 61 60 60 66 70 56 45 43 41 43 37
30 31 30 30 32 30 27 30 33 31 31 32 31 28 23 19 21 23 26 26 27 28 34 30 35 32 34 36 39 43 41 44 52 57 64 59 60 61 63 64 66 60 58 57 56 47 47
28 29 28 29 30 30 29 30 31 32 34 33 30 27 22 22 22 24 26 28 30 34 30 32 31 32 32 35 38 38 40 45 46 51 56 56 56 66 72 65 63 68 69 67 67 65 73
27 28 28 29 29 30 34 32 31 33 36 33 29 25 23 23 25 24 27 30 37 38 26 37 36 36 41 44 41 46 48 56 61 62 59 49 58 67 73 70 66 73 83 82 79 83 52
26 25 27 27 28 32 34 34 35 37 37 32 28 27 30 30 29 31 33 36 38 31 36 39 39 38 47 50 48 51 56 62 69 81 84 72 55 66 73 76 71 80 87 93 90 68 39
30 28 29 30 31 35 37 39 40 38 34 31 28 33 34 35 35 37 36 44 41 38 42 43 39 45 47 51 58 57 59 78 83 84 91 96 89 65 74 71 74 75 91 90 97 76 87
30 29 29 32 33 38 41 45 43 37 31 31 29 35 38 39 40 42 43 46 43 42 44 45 49 52 58 57 57 59 57 76 79 82 84 84 79 59 72 74 80 82 88 90 97 96 93
32 32 31 32 34 38 45 47 43 37 32 32 28 37 42 42 44 44 48 47 43 41 45 46 52 56 59 63 60 61 57 57 77 70 71 76 94 64 69 70 78 81 86 96 97 92 96
30 31 30 32 34 39 45 44 44 40 36 33 29 35 43 43 47 51 50 47 45 45 44 49 54 58 59 58 58 59 60 64 60 55 59 70 79 79 66 72 81 94 90 95 96 88 89
33 34 34 34 36 40 41 41 42 43 38 33 33 34 42 47 51 50 49 49 49 44 48 50 49 50 55 61 64 63 61 54 48 48 48 56 75 80 55 68 76 77 82 91 96 91 79
35 32 35 34 38 40 39 40 42 43 39 34 36 40 40 47 48 50 53 50 48 47 44 47 50 56 62 67 68 66 64 58 50 43 46 57 67 82 83 73 76 79 74 84 91 86 84
36 35 34 34 38 41 39 40 42 43 40 38 39 43 45 45 51 54 54 52 50 49 47 52 54 60 65 66 66 66 58 53 43 42 47 60 72 61 60 66 69 66 74 71 72 75 81
31 34 32 32 38 41 40 40 42 44 42 41 41 44 50 50 51 53 53 52 49 47 52 53 57 58 63 69 71 68 63 51 50 38 49 60 69 60 56 49 61 61 63 62 66 66 62
29 33 39 32 33 39 38 40 42 43 44 44 44 48 51 51 52 53 51 48 50 52 48 51 58 62 60 58 61 52 46 44 45 53 51 71 76 73 58 45 61 61 61 64 62 66 74
27 29 35 33 32 35 35 41 48 46 45 47 49 51 55 55 52 52 52 50 48 50 53 50 54 57 51 56 47 42 47 46 52 56 67 74 82 88 63 57 77 49 59 62 65 73 86
24 25 29 31 32 35 36 40 49 49 50 51 53 55 56 59 54 53 54 54 50 50 51 49 43 45 47 52 52 51 49 51 60 65 87 92 88 79 69 70 53 56 83 87 81 82 87
25 24 28 32 34 35 38 39 48 50 51 54 53 55 57 59 54 51 54 54 56 56 52 46 44 40 39 49 62 63 63 63 69 73 83 87 88 70 77 87 86 68 76 68 71 87 91
26 26 28 31 32 37 40 39 44 50 53 55 55 54 64 57 56 56 56 58 55 58 56 51 46 44 45 56 66 66 65 66 75 73 71 87 95 96 90 86 73 70 74 65 78 91 85
29 29 29 35 38 38 42 41 45 53 55 55 54 56 56 58 58 58 57 58 56 58 56 49 50 52 60 63 68 69 75 74 68 64 69 81 91 94 91 92 82 77 73 76 78 80 84
45 45 45 46 46 46 45 44 45 51 52 53 57 59 58 58 56 54 52 53 51 52 53 50 44 45 55 70 72 72 74 72 71 80 71 86 85 87 93 91 82 84 76 71 83 79 73

GFSGBSN_prec_cthk_258.txt.gz
RH
11 11 12 12 12 11 11 12 13 12 13 12 12 13 13 13 13 13 13 13 12 12 12 11 10 8 7 7 8 6 6 7 8 9 9 10 12 19 18 18 19 22 18 22 24 23 28
14 14 15 15 14 14 15 15 16 16 17 17 17 17 16 15 15 14 14 13 12 12 12 10 9 8 8 8 10 11 10 8 11 12 14 13 15 15 17 21 22 17 21 23 26 29 27
20 19 19 18 17 17 18 19 20 21 21 21 21 20 19 18 17 15 14 14 13 12 11 10 9 9 11 14 15 16 14 13 14 15 18 19 17 15 20 18 19 23 21 16 16 18 26
22 23 25 24 26 26 26 27 27 28 25 24 22 21 19 18 17 16 16 14 12 10 10 9 9 10 16 17 19 22 22 25 20 18 17 17 16 17 18 15 14 12 13 14 11 16 20
24 24 24 25 25 26 28 27 26 25 23 22 21 21 20 20 19 18 16 13 10 10 10 11 14 16 23 23 26 25 24 23 19 17 19 18 21 21 23 20 16 13 13 11 11 15 22
21 21 20 20 20 21 22 22 22 23 23 23 23 23 23 22 20 17 14 11 11 12 12 12 17 22 26 26 26 27 26 24 27 27 30 31 33 30 32 24 21 16 15 12 13 16 32
22 21 20 21 20 22 22 23 24 24 24 25 25 25 24 21 17 14 12 13 17 18 18 22 24 25 25 26 27 28 27 29 31 35 37 38 37 35 34 32 27 29 26 22 16 16 21
21 20 22 22 22 23 22 24 25 25 25 25 26 25 22 18 15 14 13 16 19 16 24 25 25 25 23 23 30 29 28 31 35 40 42 49 52 46 44 43 42 40 35 28 21 21 25
25 25 24 23 23 22 21 22 24 25 25 27 26 24 20 17 15 15 16 18 18 18 23 29 31 29 26 26 29 29 33 32 36 37 45 51 53 55 51 53 57 51 49 37 38 30 31
26 27 27 27 27 22 20 21 22 23 24 27 27 25 20 16 16 16 20 18 18 18 24 32 35 34 27 27 35 32 34 32 33 40 43 46 55 56 58 59 61 54 55 49 45 39 39
29 29 28 27 27 24 22 21 21 24 25 27 26 23 18 16 16 21 19 20 21 21 42 30 29 27 26 25 28 42 31 36 39 38 46 43 47 50 52 62 58 58 56 55 55 54 50
28 26 28 28 26 23 21 21 22 25 27 28 26 21 18 17 17 18 19 22 24 35 36 31 27 26 26 30 32 33 35 42 44 52 52 51 43 49 56 59 63 60 62 57 58 53 63
27 26 26 27 26 24 22 22 24 26 28 28 24 20 21 20 22 18 20 24 38 39 23 34 29 27 30 36 33 36 38 51 65 68 62 57 56 55 65 67 69 70 71 71 68 80 68
27 25 24 25 25 25 26 27 27 29 28 26 23 24 23 23 24 24 24 30 36 26 32 33 30 28 35 38 36 40 42 65 76 69 66 70 79 68 71 76 75 69 70 91 91 64 58
30 28 27 27 28 28 29 30 32 30 26 25 24 26 27 27 27 26 29 42 37 29 35 34 30 32 39 43 44 47 48 61 81 73 74 75 64 65 62 72 72 74 77 78 90 78 79
29 29 30 30 29 30 32 34 35 30 25 25 27 29 31 29 28 30 35 40 34 35 37 35 36 38 42 41 47 48 49 61 71 70 71 68 63 49 66 61 73 80 77 82 84 86 76
31 30 29 29 31 31 33 33 34 30 26 25 26 33 33 30 32 32 41 38 36 36 38 37 40 40 44 48 46 47 54 58 65 65 59 60 73 50 50 70 70 73 91 85 94 89 90
31 31 31 31 30 32 35 35 31 30 28 25 27 37 33 31 41 40 39 35 36 40 38 40 42 44 46 46 45 48 53 63 63 53 53 56 61 52 49 50 65 81 84 78 91 86 81
34 32 31 31 32 35 34 33 31 30 28 26 31 32 34 35 48 43 37 38 40 40 39 44 44 40 40 47 52 47 53 58 57 54 58 58 65 63 37 56 74 75 72 77 84 82 79
35 34 34 35 34 37 36 33 30 31 29 28 32 39 36 40 39 42 42 40 42 41 41 39 41 45 47 50 52 55 54 61 60 53 50 57 64 70 64 66 66 57 62 73 81 86 74
35 34 32 35 35 39 37 36 32 33 31 32 34 36 36 44 45 44 43 43 42 47 41 44 46 48 50 55 51 50 49 51 48 46 48 59 69 65 62 48 49 42 50 58 74 74 84
36 37 34 34 37 38 37 35 36 34 35 35 35 37 38 39 40 43 44 44 42 43 45 45 49 48 50 56 55 56 55 51 52 45 52 59 67 65 65 51 51 46 36 48 55 62 76
36 38 38 38 37 36 36 35 34 34 38 41 37 37 41 41 43 45 44 41 44 46 45 47 51 50 46 45 47 46 45 39 44 53 57 63 75 88 74 64 62 47 28 50 60 63 72
33 32 33 38 35 34 34 35 36 35 40 42 41 42 44 48 44 43 43 44 45 50 50 49 52 50 45 47 40 37 38 38 46 58 63 73 87 96 83 78 70 35 54 61 65 71 87
32 28 28 33 34 33 33 33 36 41 44 46 42 44 45 50 48 44 45 46 47 49 50 51 47 44 43 39 41 42 43 47 48 56 67 80 90 94 75 66 49 44 76 84 75 71 87
34 30 26 31 34 33 34 35 39 44 47 49 47 46 49 51 50 45 44 46 49 51 52 51 50 45 40 43 47 51 50 47 59 58 68 74 82 84 74 78 79 89 78 72 61 69 87
37 33 30 33 34 33 34 38 43 53 53 53 52 50 51 53 50 50 49 50 52 55 56 53 50 47 45 51 52 60 57 48 60 62 63 67 82 85 85 82 67 73 68 64 71 84 85
40 38 38 37 38 35 36 40 48 54 56 55 56 55 52 51 56 52 48 52 56 58 60 60 55 51 53 54 52 57 59 61 62 55 55 66 81 95 89 87 78 78 74 78 76 72 78
47 48 51 46 45 45 44 48 52 56 59 58 60 58 58 55 54 50 48 48 55 59 60 63 53 50 51 57 57 61 61 61 62 67 62 74 80 70 75 68 72 72 69 72 67 72 74

GFSGBSN_prec_cthk_264.txt.gz
RH
6 7 8 8 9 9 10 10 9 9 9 10 10 10 11 11 12 14 14 14 14 13 12 12 10 9 12 13 14 13 9 8 10 9 10 9 9 11 11 12 14 14 14 15 20 19 18
8 9 10 11 11 12 12 12 12 13 13 14 14 14 14 15 15 16 16 15 14 13 12 10 10 11 12 14 13 14 11 12 11 11 10 12 12 11 10 9 9 10 11 12 14 15 15
10 11 13 13 14 14 15 15 15 16 16 17 17 17 17 17 17 17 16 15 13 11 10 9 10 11 14 14 16 16 16 16 13 14 14 13 13 13 14 13 12 13 13 12 11 12 13
14 15 17 18 18 18 20 17 16 16 16 16 16 17 17 17 17 16 15 13 12 10 9 9 12 15 16 15 17 17 16 16 15 15 14 14 13 13 13 15 14 14 14 12 8 9 9
20 22 23 23 22 21 18 17 16 16 16 17 18 18 19 18 17 16 14 11 10 10 10 12 19 24 21 20 19 17 17 16 18 19 23 22 21 21 21 20 18 17 17 14 12 12 11
22 21 19 19 19 17 17 17 17 17 16 17 18 19 19 17 16 13 11 10 13 12 14 19 21 27 21 18 16 20 19 21 23 21 25 36 32 28 24 29 33 33 33 25 22 17 19
22 18 17 17 17 17 17 17 17 15 16 17 20 20 18 15 13 12 11 18 26 23 18 20 19 18 17 18 22 26 20 19 21 20 24 25 26 32 43 41 43 37 37 32 25 20 23
20 17 16 17 19 20 18 17 16 15 15 18 20 20 17 14 12 14 18 21 24 21 21 19 20 18 16 18 19 23 20 21 21 19 22 25 30 35 48 44 42 41 41 38 36 29 30
18 15 17 18 19 20 18 16 15 15 16 18 20 19 16 13 14 16 15 15 16 20 27 20 18 17 16 15 20 24 23 22 20 21 26 26 31 32 37 47 43 44 53 51 49 41 36
18 17 19 20 21 21 19 16 16 15 17 19 20 18 15 15 17 20 15 15 14 22 34 27 23 23 17 15 26 19 22 20 24 26 29 27 31 38 43 49 48 53 56 54 52 51 51
20 22 23 24 25 23 19 16 16 16 18 20 19 17 13 17 19 22 15 12 14 31 56 20 19 14 16 18 18 24 19 22 27 33 36 39 41 42 48 44 56 58 59 52 57 51 50
24 26 26 27 24 22 19 17 17 18 20 21 19 16 18 17 19 14 12 15 25 43 43 24 17 18 17 21 23 22 24 27 35 37 34 41 39 51 65 56 55 60 62 67 66 56 66
29 26 26 26 23 22 19 17 19 20 23 22 19 17 19 21 27 14 16 28 42 52 15 23 20 17 17 28 24 26 28 33 45 46 42 30 45 66 70 72 60 57 80 85 69 64 73
30 27 26 25 23 21 21 21 21 22 23 21 19 18 19 21 19 17 28 33 46 23 22 20 18 18 25 26 28 29 31 36 49 43 45 42 39 50 58 66 55 55 64 93 92 87 63
30 26 25 24 23 22 24 24 24 24 23 20 22 25 29 17 16 25 38 45 39 23 24 20 21 22 25 30 32 32 39 41 43 44 45 48 42 41 49 53 56 64 59 59 77 64 60
30 28 26 25 24 26 27 27 26 25 21 22 28 37 25 16 22 31 41 38 26 23 20 21 25 23 26 26 29 30 36 40 41 43 42 43 49 41 42 42 44 70 75 74 79 88 84
34 32 30 28 28 29 29 28 29 25 21 19 27 39 34 18 27 36 39 32 26 23 23 25 27 26 30 32 31 31 36 41 47 44 46 47 57 47 43 45 47 49 60 80 90 83 91
33 30 28 28 28 29 29 31 28 24 21 22 28 41 31 25 42 36 41 30 26 26 25 25 26 31 31 33 34 34 35 40 48 45 44 54 66 55 47 37 45 52 76 74 89 89 81
36 32 30 29 29 28 30 30 27 24 23 25 34 36 22 29 43 44 31 28 28 29 29 33 33 31 29 34 39 37 39 41 41 50 52 52 55 64 46 37 77 87 77 80 79 74 75
34 31 30 29 28 29 30 30 28 25 24 29 36 34 34 33 42 42 37 36 36 30 31 33 32 32 35 42 41 40 42 43 44 46 50 52 55 67 70 64 57 68 72 70 70 75 67
34 33 33 32 32 31 32 29 28 25 25 29 37 33 38 40 38 38 41 36 36 39 32 32 37 38 41 43 40 42 41 39 40 44 49 50 62 58 51 57 53 48 48 55 65 68 71
33 33 34 32 34 33 33 32 29 26 25 33 27 33 30 38 36 38 43 43 39 38 37 37 41 43 46 45 45 45 44 42 42 35 39 45 53 59 57 65 69 74 64 60 50 48 45
35 36 37 37 37 37 37 37 32 29 27 36 38 35 36 39 36 43 48 45 42 38 38 39 41 42 44 46 41 39 37 34 36 37 40 46 52 70 70 73 73 75 66 65 64 59 48
36 38 39 40 40 40 40 38 35 32 31 33 37 39 40 39 37 45 45 43 42 39 43 43 44 46 50 45 36 33 32 30 32 35 39 44 55 69 80 79 87 63 53 72 95 96 94
45 43 41 40 42 42 40 37 35 33 32 36 35 38 39 40 40 43 47 46 44 44 45 45 44 50 49 43 44 42 47 40 34 31 39 50 59 82 78 70 59 72 62 70 80 81 87
46 42 42 42 41 42 42 38 35 33 33 33 43 39 42 41 39 44 51 52 53 52 53 57 54 52 50 53 51 51 52 53 46 39 39 48 53 72 78 77 71 73 85 67 61 74 86
47 45 43 43 42 43 43 39 38 36 36 37 42 42 44 43 38 48 60 57 55 57 61 59 55 53 54 58 62 57 55 53 54 57 56 47 51 61 75 85 68 73 68 46 64 95 77
51 48 44 44 44 46 47 42 43 40 40 40 43 47 48 47 44 56 56 56 60 58 64 63 58 57 62 59 58 58 60 54 50 51 48 57 63 67 73 86 79 77 62 63 66 68 75
54 53 50 50 48 50 53 49 44 44 47 51 52 53 55 58 56 60 56 51 56 62 70 65 56 63 60 62 61 66 65 63 54 56 47 59 58 59 75 71 60 45 55 66 53 55 66

GFSGBSN_prec_cthk_267.txt.gz
RH
8 6 6 6 7 7 8 9 10 10 10 10 10 10 10 10 11 11 12 13 13 13 12 11 10 12 13 12 15 11 9 9 7 7 8 9 9 9 10 10 9 10 12 12 12 14 15
7 8 7 7 7 8 10 11 11 11 12 12 13 13 14 14 15 14 14 13 13 12 11 11 12 12 14 15 13 13 11 11 10 9 9 10 11 10 10 10 10 9 9 11 12 12 14
10 10 9 9 8 10 12 13 13 13 14 14 14 14 15 15 14 14 13 12 11 10 9 10 11 10 11 13 15 15 13 14 13 12 12 11 11 12 11 11 12 12 11 10 8 9 11
12 12 10 10 10 13 18 15 14 14 14 14 14 15 15 15 15 14 13 12 11 10 9 11 13 11 14 15 15 14 11 10 11 12 14 16 15 14 13 12 11 12 11 12 9 11 10
16 15 13 12 13 16 18 14 14 15 15 15 16 15 16 15 14 13 11 10 10 9 11 14 16 18 17 17 12 14 13 13 14 11 15 21 19 17 15 18 21 22 23 22 18 18 17
20 19 17 15 15 16 15 15 16 16 15 15 16 16 16 14 13 11 11 12 10 12 14 16 20 22 15 14 15 17 16 14 16 12 17 26 25 20 22 34 41 37 30 30 28 24 21
19 19 17 14 14 14 15 17 16 15 15 16 17 16 14 12 11 10 10 18 20 14 15 15 15 14 13 15 18 18 15 14 13 13 15 14 17 23 26 29 31 32 35 35 28 27 34
19 19 17 14 13 14 16 16 15 14 15 16 17 16 13 11 13 13 13 16 22 17 16 17 16 13 14 13 16 19 15 14 15 18 19 19 21 21 21 25 29 33 30 28 33 29 35
20 19 15 14 15 17 17 16 15 14 15 17 18 15 12 12 14 12 12 15 17 19 21 17 16 14 13 13 20 16 16 14 18 23 22 24 23 24 26 29 35 40 42 41 47 40 34
20 20 15 15 18 19 17 16 15 14 16 18 17 14 12 14 16 16 11 11 14 23 31 25 20 19 13 15 21 19 17 15 18 24 24 22 24 28 31 34 38 38 41 51 54 57 52
20 19 17 18 20 20 18 16 16 15 17 19 17 14 13 19 18 19 15 10 15 30 49 19 16 14 14 15 17 19 17 17 24 27 26 29 28 32 36 46 53 49 59 57 52 48 51
23 21 22 23 24 22 19 16 15 16 19 20 17 16 17 18 18 12 11 13 21 38 38 21 16 16 15 18 18 19 18 21 26 28 24 21 29 43 48 42 54 59 54 48 54 65 70
24 24 26 26 25 22 19 17 16 18 21 20 17 16 18 19 22 13 22 28 35 42 15 20 18 15 16 23 21 21 22 32 38 41 34 25 30 50 38 37 46 59 65 73 80 82 86
25 26 25 27 24 22 19 18 18 20 22 19 17 16 17 16 14 19 26 34 36 23 26 21 16 16 20 22 23 23 25 36 35 34 39 35 38 31 37 45 43 56 72 89 90 80 71
28 28 25 27 25 21 20 21 21 22 22 19 21 24 22 15 17 25 29 38 32 27 23 17 19 20 22 26 25 26 28 32 35 37 40 42 37 28 35 39 42 49 66 67 78 62 73
29 28 25 27 24 23 23 23 23 23 20 23 29 29 22 15 23 26 31 38 27 24 20 18 23 21 22 24 26 27 29 30 35 38 37 39 45 31 33 32 38 51 54 72 85 86 84
29 29 28 28 26 26 25 26 25 23 19 25 29 33 29 19 21 23 31 35 26 23 21 23 27 24 25 28 27 28 29 33 37 38 35 36 47 42 34 36 41 43 76 77 76 89 94
35 35 35 33 30 29 27 28 27 23 19 24 30 41 31 20 25 31 34 25 25 23 21 24 23 25 30 30 28 31 33 33 34 34 38 41 53 58 41 37 60 74 79 69 82 77 76
36 36 34 34 31 30 28 29 27 22 20 26 36 37 23 28 31 37 29 26 26 27 27 28 30 29 29 32 35 34 34 33 36 40 43 41 50 60 45 37 40 54 61 68 76 76 71
42 38 36 34 32 30 29 29 26 22 23 30 33 35 26 25 37 36 28 30 29 29 30 29 29 30 31 36 38 39 39 38 37 39 43 43 46 55 65 57 55 52 52 68 78 83 68
47 44 37 33 32 30 30 29 26 22 27 31 28 27 26 29 31 36 35 34 40 37 29 28 30 33 37 38 39 39 38 35 33 35 37 40 45 51 52 52 56 59 61 58 71 67 74
43 39 38 35 33 33 32 29 26 23 28 28 22 28 29 33 29 29 33 36 36 38 38 38 36 38 40 42 41 46 41 39 37 32 33 36 44 45 49 52 60 67 71 70 72 64 56
46 42 37 35 36 34 33 31 29 26 28 32 31 29 30 36 31 34 36 34 35 38 39 39 37 40 40 42 40 38 36 34 34 35 36 38 47 55 58 55 66 76 73 66 67 84 96
47 45 42 41 39 37 36 37 34 31 33 35 34 33 30 36 34 34 32 35 43 40 41 42 42 43 44 42 40 36 30 30 32 32 33 37 47 63 63 64 82 55 61 65 79 93 89
48 46 45 46 41 38 38 38 37 34 35 36 34 33 32 34 35 34 38 38 35 41 45 44 43 44 42 43 47 43 45 45 40 36 34 36 50 65 79 77 59 60 67 68 66 76 80
51 45 46 47 47 46 43 42 41 38 37 39 33 31 31 31 34 37 36 39 45 50 55 56 54 53 50 52 51 52 55 52 48 44 38 44 54 65 77 86 80 67 63 64 54 73 78
56 55 52 50 49 49 49 47 45 43 40 40 40 37 37 34 34 35 39 43 44 51 65 61 61 59 53 56 59 60 58 47 58 58 51 56 62 65 71 76 66 77 71 66 70 72 66
58 56 54 52 48 48 50 51 47 47 46 43 42 48 43 39 35 35 40 45 51 57 68 60 60 60 59 59 63 61 62 58 55 48 48 55 67 67 70 80 79 69 73 74 67 58 62
56 56 53 49 45 48 53 53 50 50 50 49 50 54 55 51 48 44 43 44 51 59 67 62 57 59 60 57 63 67 65 62 59 64 42 54 52 62 64 64 54 64 69 71 61 68 69

GFSGBSN_prec_cthk_270.txt.gz
RH
12 6 5 6 6 6 6 7 7 8 8 8 9 9 9 9 9 10 11 11 11 11 10 11 12 12 11 12 13 11 10 8 6 6 7 7 7 8 9 8 7 8 9 10 11 11 11
7 6 6 7 8 7 7 8 9 9 10 10 11 11 12 12 11 11 11 11 11 10 11 11 10 11 11 12 11 11 11 10 9 8 8 9 9 9 10 10 10 10 9 9 9 11 12
7 6 8 9 9 8 8 9 10 11 12 13 13 13 14 13 12 11 11 10 9 9 11 12 11 11 10 14 12 11 10 10 11 12 13 12 12 11 10 8 10 10 11 9 8 9 10
8 7 9 10 9 8 10 11 13 14 13 14 14 14 14 13 13 12 11 10 9 9 10 10 10 10 13 13 12 12 11 11 9 10 11 14 13 13 13 13 14 14 13 17 15 14 13
9 9 10 11 9 10 12 14 14 14 13 14 15 15 15 14 12 11 10 9 9 10 12 13 12 11 15 14 14 12 10 8 8 10 12 14 15 12 16 20 20 20 23 20 19 17 18
11 14 14 13 12 12 13 14 14 14 14 15 15 15 14 13 11 11 10 11 10 11 13 15 16 13 12 14 14 12 11 11 8 9 13 13 19 18 22 24 31 28 26 23 23 21 19
20 15 14 13 14 13 13 13 14 14 14 15 16 16 14 12 10 11 11 11 12 13 14 13 11 11 12 13 16 14 10 8 11 13 15 13 17 22 20 21 24 24 26 26 24 28 30
18 14 13 15 13 13 13 14 15 14 14 15 17 15 12 11 10 9 15 18 15 13 15 14 12 11 10 13 16 12 12 11 15 17 15 17 24 21 20 20 23 25 26 28 26 30 32
18 14 15 15 14 12 13 15 15 14 14 16 16 14 11 12 11 12 12 18 15 16 15 15 14 11 12 14 15 14 13 13 15 19 19 24 24 22 24 29 32 29 32 36 33 34 32
18 15 17 16 13 13 14 15 14 13 14 16 16 14 11 14 13 13 10 16 18 21 26 20 19 14 13 14 16 15 15 14 19 21 19 22 19 24 27 26 31 36 39 37 37 39 44
20 16 17 17 14 14 16 15 14 14 15 17 17 13 12 16 15 14 11 12 19 28 26 21 15 14 14 14 15 17 16 17 22 22 18 20 25 29 28 28 29 40 36 37 39 43 53
23 19 18 18 17 16 16 16 14 14 16 18 16 13 14 16 15 11 10 11 19 33 23 19 16 15 16 18 18 19 18 21 22 21 17 29 30 30 30 27 32 32 37 39 49 55 79
26 23 22 20 20 18 17 16 15 15 17 18 17 15 15 14 15 12 16 19 31 33 20 20 19 16 17 22 21 20 26 26 28 28 29 21 22 26 25 23 23 34 49 63 61 65 71
30 28 25 22 21 19 18 16 15 17 19 19 16 15 15 19 13 18 22 29 23 23 27 20 17 17 22 22 22 23 25 37 30 27 35 36 30 24 25 31 32 33 47 76 83 77 59
34 30 25 24 23 21 19 17 18 19 20 19 20 18 14 14 20 22 24 31 26 26 22 20 18 21 24 24 24 25 26 32 33 30 34 37 34 23 28 23 31 36 49 51 75 66 72
39 34 25 23 23 22 22 19 21 21 21 22 24 19 14 19 22 23 24 32 24 22 21 18 23 22 25 26 25 25 27 31 34 34 30 31 39 29 27 23 26 39 47 64 76 82 81
43 38 26 25 24 23 24 22 23 22 21 25 25 27 18 20 21 18 27 30 23 22 19 23 24 25 25 26 26 27 31 34 34 33 31 35 40 34 30 33 44 55 62 66 70 83 85
50 38 28 27 25 25 26 25 25 23 23 26 27 31 22 17 18 26 29 24 21 20 19 21 24 25 26 26 26 28 31 31 32 32 36 37 45 48 33 32 43 42 55 59 77 72 79
47 41 37 33 30 29 27 28 26 23 22 27 29 30 21 21 24 30 24 22 23 22 22 24 26 25 26 26 29 32 32 33 32 34 35 35 44 53 37 34 40 45 48 57 73 77 74
54 49 44 37 31 30 28 29 27 23 24 27 28 32 21 24 26 25 23 22 24 23 25 26 28 27 28 29 31 35 35 35 34 34 37 38 43 42 51 45 48 52 54 63 76 83 67
56 50 45 36 34 32 30 30 27 23 25 29 26 23 20 24 30 28 26 26 26 26 25 26 28 28 31 36 36 36 35 34 32 32 31 35 41 43 43 42 44 51 57 58 72 73 89
61 57 49 44 38 32 31 30 27 23 27 27 23 26 25 24 24 31 32 29 29 30 28 30 30 34 36 38 37 42 39 36 36 33 30 34 38 37 40 40 45 50 52 66 67 76 86
59 53 48 45 37 34 34 32 28 25 28 28 25 25 26 32 28 34 33 28 27 28 30 32 34 38 39 41 40 39 39 38 37 39 38 37 42 46 46 44 47 55 53 60 65 80 85
58 53 49 48 46 42 41 33 30 28 30 28 28 28 28 35 32 31 31 30 30 29 32 32 34 39 40 41 41 40 39 36 34 34 34 38 43 53 54 53 64 38 48 59 62 66 71
57 51 47 44 43 44 42 37 35 34 35 33 33 32 29 35 34 33 34 32 31 29 32 33 36 42 46 46 48 46 45 44 41 41 39 38 46 58 64 66 46 41 53 58 65 61 63
51 45 47 49 46 45 42 44 38 36 36 36 36 34 34 31 38 35 36 32 35 35 35 37 40 46 51 56 58 57 55 52 47 44 43 45 48 60 69 75 74 43 42 51 60 70 59
56 56 51 48 46 46 46 47 44 41 41 41 38 37 35 33 38 40 41 42 37 37 42 45 52 56 60 64 64 62 59 48 55 56 55 57 64 65 66 74 61 46 48 51 67 65 60
54 53 48 49 53 51 51 52 48 48 46 45 45 43 40 39 37 40 42 44 44 43 47 50 61 64 67 67 63 61 65 58 58 53 54 57 62 65 70 74 72 47 56 64 62 58 65
58 61 59 56 54 54 55 55 53 50 50 48 47 49 48 48 46 44 44 45 48 56 56 54 58 60 58 62 60 62 66 67 63 66 51 57 52 59 61 57 51 55 55 55 62 61 64

GFSGBSN_prec_cthk_273.txt.gz
RH
18 9 5 4 4 5 6 6 6 6 7 7 8 8 9 8 9 10 10 10 10 10 10 12 13 12 11 11 13 12 11 8 7 7 7 5 6 7 8 8 8 9 9 9 9 9 9
16 9 5 5 5 6 7 7 7 7 7 8 8 9 10 10 10 11 11 10 10 11 11 11 11 11 10 11 11 10 9 8 8 9 10 10 10 9 9 9 10 11 11 9 9 8 8
14 7 5 6 6 7 8 9 7 8 8 9 10 11 12 11 11 11 11 10 9 12 11 11 11 9 8 12 11 10 11 10 9 10 10 11 10 9 10 11 13 12 11 10 10 10 11
14 9 6 7 7 8 9 10 9 9 10 11 12 13 13 12 11 11 10 9 9 11 11 10 9 8 12 13 13 11 9 9 8 9 10 10 9 10 11 12 13 13 14 16 14 12 11
16 8 7 7 8 9 10 10 10 12 13 13 13 13 13 12 11 11 10 10 11 12 12 10 9 9 14 15 12 10 8 7 9 9 9 8 8 10 10 11 14 17 20 17 16 14 16
14 10 8 8 8 10 10 11 12 13 13 12 13 13 14 12 11 11 12 12 12 12 13 13 12 11 14 14 12 9 8 7 6 9 6 7 10 14 16 18 25 22 21 20 20 17 15
15 11 10 9 9 11 12 12 13 13 12 13 13 13 13 12 11 12 11 12 12 12 13 12 13 13 14 14 12 9 8 7 7 7 12 14 16 22 22 22 20 20 23 24 23 24 22
22 16 13 11 11 11 13 12 13 12 13 13 14 14 13 12 11 11 11 13 13 14 14 12 11 11 13 14 12 11 9 10 11 15 14 16 23 20 20 19 21 21 24 26 23 24 22
24 17 13 11 12 13 13 12 12 12 13 14 14 14 12 11 9 9 14 16 14 16 14 14 12 11 13 14 13 13 11 14 16 18 19 21 22 22 19 19 20 23 29 28 31 29 23
24 17 13 12 13 14 13 12 12 13 13 14 15 13 12 11 10 10 12 15 16 19 22 19 17 12 13 14 15 15 14 16 18 17 17 20 23 21 21 21 22 31 22 25 29 32 38
23 18 15 14 14 15 13 12 13 13 13 14 15 13 11 11 11 11 14 14 19 24 25 20 15 14 14 14 15 17 17 18 20 18 21 26 24 21 21 24 24 25 21 23 26 33 40
24 21 18 15 14 15 13 13 14 14 14 15 15 13 11 12 12 11 10 14 20 30 21 20 16 16 16 17 17 18 18 18 20 21 25 27 28 21 20 19 20 21 24 25 32 44 59
27 25 21 16 16 16 14 14 14 14 15 16 16 13 12 12 10 10 10 16 28 31 21 19 18 16 19 21 19 21 22 23 25 25 28 22 22 21 19 17 16 21 31 45 44 54 54
32 29 26 21 19 18 15 15 15 15 16 16 16 14 12 14 11 13 16 24 19 22 24 18 18 17 23 22 22 24 26 33 26 26 35 32 26 21 23 23 23 27 35 52 65 66 52
37 35 31 27 22 19 16 16 16 17 18 17 16 14 13 14 13 18 22 28 24 24 21 19 18 20 23 23 22 23 26 30 30 27 31 36 31 25 25 23 24 26 34 37 59 57 67
42 39 36 34 25 20 17 17 18 19 19 20 17 14 15 17 17 21 25 29 23 22 20 19 20 21 25 24 24 23 25 29 30 29 27 30 36 28 27 22 34 33 36 52 64 75 77
47 44 37 34 28 22 19 20 21 21 22 23 19 16 17 19 21 20 25 26 22 21 20 20 21 23 24 25 24 25 29 30 30 31 31 33 36 32 29 30 40 37 42 48 53 67 79
50 45 42 38 32 24 22 22 23 22 27 26 24 24 16 18 18 25 26 23 20 21 19 19 21 23 24 25 26 27 29 31 30 31 33 34 39 44 32 28 35 34 42 43 58 56 61
53 49 45 43 37 30 26 24 24 23 26 28 27 24 20 17 23 28 24 20 21 20 19 19 22 21 23 25 28 29 33 32 32 33 35 34 42 50 31 37 42 43 45 49 57 61 67
56 52 48 49 42 39 32 27 26 25 30 30 27 29 23 21 20 21 21 21 22 21 20 20 21 22 25 27 27 33 35 37 36 36 36 35 41 40 43 34 40 41 48 55 60 76 70
59 55 58 55 46 43 35 30 29 26 31 31 26 25 20 26 26 23 20 21 23 23 21 22 24 24 27 31 33 35 36 38 38 38 36 37 42 44 39 36 39 40 44 51 61 63 73
69 65 61 55 49 44 35 33 31 27 30 30 25 23 23 22 25 25 25 24 23 23 22 23 23 25 28 32 34 40 38 39 38 37 36 35 38 40 41 32 39 43 41 43 50 59 65
68 64 61 55 52 46 43 37 31 28 29 28 25 24 22 27 27 29 28 27 27 28 26 26 26 28 32 34 36 38 40 40 39 41 42 44 47 47 46 40 46 49 39 43 47 55 57
66 65 63 59 56 50 47 42 34 28 29 27 24 24 23 32 28 28 29 27 27 27 27 27 28 30 34 36 38 41 42 41 41 41 41 47 48 51 54 51 62 33 35 41 48 50 52
75 72 67 60 56 51 50 47 39 32 28 30 29 25 26 35 31 31 31 30 29 31 32 30 31 32 34 36 42 46 46 47 44 42 44 46 51 57 62 66 45 37 35 48 51 42 50
72 68 64 61 59 55 48 41 38 30 41 37 35 37 32 29 35 35 34 36 38 37 36 35 34 35 38 42 50 54 52 53 51 45 49 51 53 57 72 74 71 44 45 41 48 52 49
74 72 66 58 51 52 55 47 46 47 43 42 38 41 36 29 35 39 39 41 39 41 45 42 43 44 45 56 68 68 63 53 56 56 61 66 70 67 68 74 59 43 41 48 60 54 51
62 60 58 58 54 49 50 51 49 44 41 41 41 41 39 38 37 40 44 44 43 43 47 46 49 52 60 65 70 68 68 65 63 53 57 60 67 75 76 81 72 45 49 53 49 49 54
60 55 54 52 50 55 55 50 47 48 48 47 46 44 45 42 44 44 44 46 48 48 49 53 55 52 54 59 61 62 70 69 62 67 55 63 59 64 67 61 51 53 52 54 56 55 54

GFSGBSN_prec_cthk_276.txt.gz
RH
26 16 8 4 4 4 4 5 5 6 6 6 7 7 7 8 8 8 8 9 9 9 11 13 13 13 11 11 12 10 9 9 8 6 6 6 5 6 8 8 8 9 10 10 9 9 10
24 13 7 4 4 4 5 5 6 7 7 7 7 7 8 8 9 9 9 9 10 11 11 12 11 11 10 11 10 10 9 8 9 8 8 7 8 8 9 10 10 11 11 11 10 9 9
21 12 7 5 5 5 5 6 7 7 7 7 8 8 9 9 10 10 10 10 11 11 11 11 11 10 10 13 11 10 10 9 10 9 8 8 7 7 9 11 12 11 11 11 11 11 12
20 12 7 5 6 6 6 7 7 8 8 9 9 10 10 11 11 11 11 10 11 11 11 11 10 9 13 12 10 9 9 8 9 8 7 7 7 6 9 11 11 12 11 14 13 12 13
19 12 7 7 7 6 7 8 8 9 10 10 11 12 12 12 12 11 10 10 11 11 10 10 9 10 14 13 10 8 6 8 9 7 7 8 7 10 9 10 14 15 18 16 15 16 14
21 12 8 6 9 7 7 9 10 10 11 12 12 12 11 11 11 11 11 12 12 12 11 10 10 11 14 12 9 8 7 6 8 8 6 8 10 14 13 12 23 20 19 18 18 17 16
23 13 9 8 7 9 9 9 11 12 12 12 11 12 12 12 11 12 12 12 11 10 12 14 14 14 13 11 9 8 7 7 7 8 12 12 15 23 19 20 19 19 20 21 19 19 20
25 16 11 9 8 9 9 10 12 13 12 11 12 12 12 12 12 12 11 11 11 11 12 13 13 14 14 11 10 9 7 8 10 12 12 16 25 21 16 15 18 19 20 22 19 18 19
27 21 13 9 9 10 10 11 13 12 12 12 13 13 12 11 12 11 10 11 11 11 12 13 13 13 13 11 12 11 11 11 13 16 17 24 24 19 16 17 18 22 20 20 22 23 19
31 26 15 10 10 10 11 13 13 12 12 12 13 13 12 11 11 10 12 13 13 13 18 17 15 12 12 13 14 14 13 11 13 18 17 21 21 19 17 19 18 24 17 17 20 24 30
36 29 19 11 11 11 12 14 13 12 12 13 13 13 12 11 10 10 12 13 15 18 23 18 15 13 13 12 14 16 15 14 17 19 18 24 21 19 18 20 17 20 15 17 20 27 32
38 31 21 14 12 12 13 14 12 12 13 14 14 13 12 12 10 10 12 14 18 26 19 18 15 15 14 15 15 16 15 16 19 19 21 24 22 19 19 16 18 17 19 23 31 36 49
40 32 22 17 14 13 14 14 12 12 14 15 15 14 14 12 10 9 13 16 24 28 19 20 17 16 16 17 18 19 20 21 23 23 27 23 22 22 19 17 17 21 26 37 36 48 46
40 32 24 19 17 14 15 15 13 13 15 16 16 15 14 12 10 9 13 20 20 23 23 17 17 18 20 19 20 22 24 29 23 24 33 30 28 23 25 21 23 24 34 42 40 56 48
40 34 29 23 21 19 16 15 14 15 16 17 17 16 16 12 12 11 14 26 23 23 20 18 18 20 22 22 21 21 25 27 26 23 28 33 28 25 26 24 25 26 38 38 46 51 59
42 36 33 29 27 24 18 16 15 17 17 18 17 16 17 15 15 14 19 24 20 22 18 18 19 20 24 23 21 21 25 27 27 25 24 29 33 29 28 26 31 30 35 42 49 61 63
44 39 39 40 33 28 22 19 17 18 19 20 17 16 19 18 17 17 23 24 21 20 20 20 20 22 23 24 24 23 27 28 28 29 28 31 33 30 29 29 33 32 36 42 43 54 61
49 44 46 45 40 33 27 24 21 20 23 22 22 21 21 19 17 23 23 21 19 20 19 20 20 20 22 23 24 25 28 28 28 29 32 34 38 42 34 32 36 36 38 40 48 47 58
52 52 50 46 44 37 32 29 26 23 26 27 24 23 21 19 21 27 23 20 19 20 20 21 20 20 21 23 24 26 27 28 30 31 35 37 42 49 32 35 40 42 42 45 49 54 57
60 56 55 46 45 42 36 34 32 29 29 28 26 28 22 20 18 20 20 21 21 20 21 19 20 20 22 23 24 29 30 30 31 33 36 38 44 41 37 30 38 38 43 46 50 63 58
62 58 55 47 47 47 44 40 36 33 30 30 29 27 24 27 24 20 19 21 22 21 20 18 19 20 21 26 27 29 30 33 35 39 41 41 46 46 42 38 39 36 39 43 51 52 59
67 62 55 50 49 51 50 48 42 38 35 34 28 26 23 25 23 21 22 21 22 21 21 21 21 22 23 25 25 32 31 34 35 38 40 42 43 45 47 38 40 40 35 37 42 45 50
69 62 58 55 54 55 56 51 46 42 44 37 30 26 23 30 28 25 25 23 22 21 26 21 22 23 25 25 26 29 31 33 36 39 43 47 53 52 50 47 48 51 37 35 36 40 48
66 63 62 61 62 61 59 54 46 42 41 35 30 26 24 31 30 27 26 22 25 29 25 25 26 30 34 35 34 32 34 35 38 41 44 54 54 57 56 51 52 35 38 38 41 42 51
69 73 71 68 66 62 57 55 48 42 37 34 28 25 23 31 31 31 29 29 38 27 26 27 29 33 37 38 37 37 38 39 42 45 50 53 57 60 60 66 46 39 38 42 47 44 45
76 75 73 71 66 60 58 55 52 44 42 37 29 25 29 34 34 32 32 39 37 34 34 37 40 39 40 43 45 50 45 47 52 53 56 59 60 61 69 71 71 48 45 46 49 50 38
77 75 71 68 67 67 64 58 54 45 42 39 39 37 26 28 39 43 43 40 37 41 47 44 43 44 43 51 57 58 56 54 60 61 70 71 69 66 72 73 59 47 47 56 59 51 47
80 80 75 73 69 65 61 55 53 53 49 40 36 40 38 35 40 44 42 36 38 42 49 47 47 49 52 55 60 62 63 59 62 57 65 66 68 76 76 79 71 48 52 54 48 46 47
85 80 76 73 68 64 61 57 45 42 43 46 48 44 41 36 36 38 44 48 47 50 49 48 48 47 53 59 59 58 62 63 60 64 56 65 60 66 66 59 51 53 53 53 56 56 57